Theta_e
343 343 344 344 343 344 348 349 349 349 349 348 349 349 349 349 348 348 347 348 347 342 341 341 344 341 347 344 347 347 347 347 347 346 345 345 345 346 346 346 344 342 343 342 342 342 343 343 344 344 344 344 339 332 333 334 335 338 338 339 340 338
341 342 343 344 344 345 347 347 343 345 346 347 348 348 347 343 348 341 348 346 340 344 339 337 338 348 342 343 345 347 347 347 346 346 345 345 345 345 346 346 344 344 343 343 343 333 334 337 339 342 344 341 332 332 333 334 335 337 338 337 338 339
339 340 342 343 344 345 343 342 342 343 344 348 347 347 341 344 338 338 339 338 340 338 336 338 340 344 343 347 344 347 347 347 346 346 345 345 345 345 346 346 345 344 344 344 335 330 329 328 328 336 336 331 329 332 332 333 334 335 336 337 336 340
338 339 340 341 342 342 342 342 341 341 342 342 342 343 339 339 339 337 338 335 337 340 340 338 348 349 349 342 341 347 347 347 347 346 346 344 345 345 346 346 346 345 344 339 331 330 329 328 328 327 326 328 331 332 331 332 333 333 335 339 336 341
338 339 340 341 341 340 341 340 340 339 340 339 339 339 338 338 338 338 335 338 337 341 340 335 334 339 342 338 336 336 337 337 337 336 345 333 334 340 339 336 337 340 333 332 332 331 329 329 330 330 328 330 332 331 331 331 331 332 333 334 335 340
339 339 340 340 339 341 341 338 338 339 338 339 339 338 338 338 338 338 336 337 340 337 336 336 335 336 339 338 337 335 336 335 333 333 339 335 333 333 334 335 336 337 336 334 333 333 330 332 332 331 330 331 334 332 329 329 329 329 330 330 336 338
338 339 339 339 339 339 337 337 338 338 338 338 338 338 337 337 337 339 338 340 338 337 334 335 335 335 336 338 337 335 335 334 332 331 333 333 332 333 335 335 335 336 335 335 336 336 334 333 332 333 332 332 333 330 329 328 328 328 329 331 337 339
338 338 337 338 338 337 336 337 339 344 340 341 339 336 336 336 339 336 337 338 338 335 336 334 335 334 335 335 336 336 335 333 334 332 332 332 333 331 331 335 334 334 335 337 337 336 334 335 334 334 333 332 331 329 328 328 328 329 329 330 333 337
338 337 337 337 337 336 336 337 340 338 338 346 336 336 336 337 336 336 337 337 340 334 335 336 334 336 334 336 335 334 333 333 333 334 332 332 333 330 329 331 332 333 335 336 336 335 334 334 334 334 332 332 331 329 329 328 328 329 328 329 331 335
338 337 337 337 337 337 336 337 336 337 338 342 335 337 337 335 335 336 335 336 338 336 336 336 335 335 335 335 334 334 334 333 333 333 331 332 331 329 328 328 330 331 334 335 335 335 335 334 335 333 330 330 331 330 329 328 328 328 328 329 330 334
338 340 337 337 337 337 337 336 337 336 336 335 337 339 337 335 335 335 335 335 335 336 335 334 335 334 334 334 333 333 333 333 333 333 333 333 332 329 327 328 330 329 331 333 334 335 336 335 334 332 330 331 331 330 329 329 329 329 328 328 329 331
339 339 338 337 338 337 337 337 338 336 335 335 338 336 335 335 338 334 334 333 333 334 335 333 333 334 334 333 334 334 334 333 333 334 334 333 332 333 332 331 331 331 331 332 334 334 334 333 332 331 328 330 330 330 330 329 328 328 328 328 329 330
340 339 338 338 338 339 339 340 338 336 336 337 337 336 334 334 334 333 333 334 333 333 333 332 332 333 336 333 333 333 333 334 334 334 335 335 335 335 334 334 334 335 332 332 332 333 334 333 332 331 330 328 329 330 331 329 328 328 328 329 329 330
340 339 339 340 340 339 339 339 339 337 338 336 335 336 336 334 335 335 335 335 334 334 333 332 331 331 332 331 331 331 332 334 334 334 335 334 334 334 333 333 332 331 335 333 332 333 332 330 330 331 329 329 328 329 330 331 330 329 328 329 328 329
341 339 342 339 340 338 338 340 338 337 337 335 334 334 334 333 333 335 335 335 334 334 334 332 332 331 330 331 331 331 333 335 335 335 334 335 334 333 333 333 331 331 329 329 331 330 330 329 330 330 328 329 328 329 330 331 332 331 331 328 327 328
341 340 338 339 339 338 339 337 337 340 335 334 334 334 333 334 333 332 334 333 332 333 334 332 332 332 332 330 330 331 332 333 335 335 334 334 334 333 332 331 332 331 328 328 329 328 330 330 330 329 328 328 328 329 329 331 331 331 332 330 328 327
340 339 337 337 338 336 336 335 335 337 334 333 333 334 333 333 334 333 332 332 331 332 332 332 331 332 333 332 331 330 331 332 334 335 334 333 333 333 331 331 330 330 329 328 329 329 329 330 331 330 328 329 329 330 329 330 331 331 331 330 328 327
340 339 337 337 338 336 335 335 333 332 335 332 331 331 333 333 334 332 331 332 332 332 332 330 331 333 334 335 334 333 332 332 333 334 334 333 333 332 330 330 329 328 330 329 327 326 327 329 332 332 331 329 329 328 329 330 331 333 330 329 328 327
340 338 336 337 338 334 333 331 331 332 330 329 332 333 332 333 334 332 332 332 332 334 335 334 333 333 332 332 332 332 332 331 331 331 332 333 332 332 331 329 328 327 330 330 328 329 328 329 331 331 329 329 328 328 328 330 332 331 330 329 329 329
338 338 336 335 336 332 331 330 329 330 330 331 331 332 334 335 334 334 335 334 333 334 334 336 334 333 332 331 330 330 330 328 329 330 330 331 333 332 331 329 328 326 327 328 330 330 330 328 327 328 328 328 330 329 327 329 330 330 330 329 329 331
337 337 335 334 332 331 328 331 330 328 328 328 330 331 333 333 334 334 335 335 334 334 333 334 335 333 332 333 333 331 331 330 329 330 330 330 331 331 331 330 328 328 327 326 327 328 329 328 324 322 325 325 326 329 331 330 329 329 329 330 331 330
333 333 334 334 333 332 327 328 326 327 328 330 331 331 332 332 334 336 336 335 335 334 334 334 334 333 333 333 332 332 332 332 331 330 330 331 330 332 331 330 329 327 327 327 325 328 329 326 321 320 319 319 321 323 328 328 327 329 330 331 330 329
332 333 333 334 332 331 330 330 328 328 328 328 329 333 334 334 335 335 335 334 333 332 332 331 332 332 331 332 333 333 333 332 331 332 331 330 330 330 331 330 329 329 326 326 328 329 329 327 322 323 322 319 316 315 319 321 324 326 329 329 329 329
331 332 333 333 332 330 330 330 329 329 329 328 328 331 330 330 330 332 333 332 332 332 332 331 332 331 331 331 332 333 334 332 332 331 331 331 331 331 332 332 331 330 329 326 328 328 330 328 326 322 316 318 316 316 313 316 318 321 328 328 328 328
333 332 331 333 330 330 330 329 328 328 328 330 327 328 329 329 331 332 334 331 330 332 332 331 331 330 331 331 331 333 334 334 333 331 332 332 332 332 332 333 332 331 330 328 326 325 328 329 327 328 323 316 313 312 314 316 319 319 326 324 326 327
333 332 332 332 333 333 332 329 329 328 325 324 325 326 326 328 329 330 331 332 331 331 332 332 332 331 331 332 331 332 333 334 334 333 332 332 332 332 332 332 332 332 331 331 328 325 326 330 329 328 328 325 322 316 315 318 320 315 323 326 326 327
334 333 335 334 335 334 332 332 332 332 330 328 326 325 326 329 330 331 332 330 329 330 331 331 331 331 331 331 331 331 331 331 331 332 334 332 331 331 332 332 333 332 332 331 330 326 326 327 328 328 328 327 326 326 324 319 316 315 315 321 324 324
334 335 336 336 336 334 332 332 330 329 330 329 328 327 328 330 329 329 329 330 329 329 330 330 330 330 332 332 332 332 331 330 330 330 332 333 332 332 331 332 333 333 333 332 330 328 327 327 325 325 327 326 325 326 326 324 323 321 318 316 318 324
332 334 335 335 335 336 336 335 334 333 332 333 332 330 327 325 328 326 325 326 327 328 328 329 329 329 330 331 332 331 330 329 329 329 331 332 332 333 330 330 331 332 331 331 331 330 329 327 326 325 325 324 325 324 324 323 324 322 318 317 318 319
328 329 330 330 330 330 331 331 330 330 328 327 326 326 323 324 325 325 324 325 325 325 327 327 328 330 330 330 330 330 330 329 329 329 331 330 331 330 329 330 331 331 331 330 330 329 328 327 327 326 326 325 323 323 322 321 321 321 321 320 318 319
327 327 328 328 328 328 329 329 328 326 325 324 325 325 325 325 325 323 323 324 323 324 325 327 328 329 329 330 330 331 329 328 329 329 329 328 328 328 329 329 330 331 331 329 329 327 326 326 327 326 326 326 323 324 321 320 320 321 321 319 318 319
325 325 326 326 325 325 326 326 325 324 324 323 324 326 325 323 323 320 321 322 323 323 324 325 326 326 327 328 329 329 329 328 328 328 328 328 327 327 328 329 327 326 326 327 328 327 326 325 326 326 326 326 326 325 325 323 323 324 322 322 321 320
322 323 323 324 323 323 324 324 324 323 322 323 323 323 322 322 322 321 322 322 323 323 324 324 325 325 326 326 327 327 327 328 329 330 330 329 328 327 327 327 327 326 326 325 326 326 325 326 327 326 326 326 326 326 326 326 326 325 325 324 322 319
321 321 321 321 321 321 321 322 321 321 321 321 322 322 322 322 323 323 323 322 322 323 324 323 324 324 326 326 327 327 328 328 328 329 329 329 328 327 327 327 327 327 327 328 327 327 326 327 328 328 327 325 325 326 327 327 327 326 325 323 321 320
320 320 320 320 320 320 320 321 321 320 321 321 322 321 322 323 323 323 323 323 324 324 323 324 324 325 326 326 326 326 326 327 328 328 328 328 329 329 329 329 328 328 328 328 328 328 327 327 326 326 326 326 326 326 327 328 327 326 327 325 324 322
320 320 319 319 318 318 318 320 319 320 320 321 321 321 322 323 324 323 323 323 324 323 324 324 325 325 326 326 326 326 327 328 329 328 327 326 327 327 327 327 327 328 327 329 327 326 326 326 326 326 325 326 325 325 327 328 328 328 327 327 326 325
319 318 317 318 318 317 317 318 318 318 319 319 320 320 321 323 324 325 323 323 323 324 324 324 325 326 327 328 327 327 328 328 327 327 327 327 327 327 327 327 326 327 327 329 329 327 327 326 326 327 327 327 326 326 327 328 328 329 328 328 327 326
Wind_Speed
7 7 7 7 5 5 8 13 10 12 12 12 12 13 12 12 10 9 8 8 6 3 3 3 3 3 6 3 5 6 6 6 5 5 4 3 3 3 3 3 2 2 3 3 4 5 5 6 5 4 3 6 6 6 6 5 6 5 5 5 5 5
7 8 8 6 5 4 5 8 5 5 5 8 10 10 8 4 6 2 7 5 3 3 3 2 2 4 2 3 4 6 7 6 5 5 4 3 3 2 3 4 3 3 3 3 4 3 3 5 6 5 4 6 4 7 5 5 5 5 5 5 5 7
7 7 8 6 5 5 5 5 5 4 4 7 7 5 3 3 3 3 3 3 2 1 2 2 2 3 3 6 4 6 7 7 6 6 5 3 2 3 3 4 4 5 4 4 1 2 3 3 4 6 6 3 4 6 6 5 5 5 6 6 5 10
6 7 7 6 6 5 5 5 4 4 4 4 4 4 3 4 4 3 3 2 2 0 1 3 5 8 7 3 3 5 7 7 7 7 7 4 4 3 4 5 5 5 4 2 1 2 2 3 4 3 2 3 5 5 6 5 5 5 5 6 5 12
5 6 7 6 6 6 5 5 4 4 5 4 4 4 4 4 4 4 3 3 3 1 2 1 2 3 3 3 2 2 3 3 2 3 4 3 2 2 2 2 2 3 3 3 2 3 2 4 4 4 2 5 3 6 5 5 4 4 5 5 5 11
5 5 6 6 6 6 6 4 4 5 5 4 4 4 4 3 3 3 3 3 2 2 2 2 1 2 4 5 4 4 4 3 2 2 1 3 2 3 3 3 2 3 4 3 3 3 3 3 4 4 4 4 4 5 5 5 5 4 5 5 6 13
6 6 6 5 5 4 4 4 5 4 4 4 4 4 3 2 2 4 3 3 4 3 3 3 3 3 3 4 5 4 4 3 3 3 2 2 3 3 3 4 4 4 4 4 4 3 3 4 3 4 5 1 4 5 6 6 5 4 5 5 6 14
5 6 4 5 5 4 4 5 5 5 4 4 4 3 3 3 4 4 3 3 2 3 3 3 3 2 3 2 4 4 3 2 4 4 2 2 3 3 4 3 3 4 4 4 5 4 4 5 4 3 4 2 5 6 6 6 5 5 5 5 4 11
6 5 5 5 5 4 4 4 3 4 5 5 4 4 4 3 4 3 3 4 4 3 2 3 3 3 2 3 3 3 3 4 3 3 2 3 3 3 3 4 4 5 4 5 5 5 5 5 6 4 4 4 6 7 6 6 6 6 4 4 5 9
6 6 5 5 5 5 4 4 3 3 4 4 3 4 3 4 4 4 4 5 5 4 4 4 3 3 3 3 3 2 3 3 4 3 3 4 3 4 5 3 4 5 5 6 5 6 5 6 6 4 5 4 6 7 7 7 7 6 5 5 5 6
6 5 4 5 4 5 4 4 3 3 3 4 4 4 5 5 4 4 5 4 4 3 3 2 3 3 3 2 2 3 3 3 3 4 4 5 2 3 3 5 5 5 6 6 7 6 6 6 6 3 3 4 6 6 6 6 6 6 5 5 5 4
5 5 5 4 3 4 5 5 4 4 4 5 4 4 4 4 4 3 3 3 3 3 2 3 3 3 2 2 3 3 3 3 4 4 4 5 5 3 3 4 5 5 6 7 7 7 6 6 6 4 1 3 5 4 6 6 6 6 5 5 5 5
5 5 5 5 5 4 4 5 5 5 5 5 4 4 4 5 4 3 3 3 3 3 2 3 3 3 3 2 2 3 3 4 4 4 5 5 5 4 3 4 5 4 5 7 7 8 6 6 5 3 1 3 5 5 3 4 3 1 2 4 5 4
6 6 5 5 5 5 5 5 5 5 4 4 4 4 5 5 4 3 3 3 3 3 3 3 3 3 3 2 2 2 3 4 4 4 5 4 5 4 4 4 5 5 6 6 8 8 6 5 5 1 3 5 6 6 5 5 5 4 2 2 2 3
6 6 5 5 6 5 4 5 5 4 4 4 4 4 4 4 3 3 3 3 2 2 2 2 2 2 2 2 3 3 4 4 4 4 4 4 4 4 4 6 4 5 3 2 5 8 9 7 4 3 4 5 6 6 6 6 6 5 5 5 0 5
6 6 5 5 5 5 5 4 4 4 4 4 4 5 4 4 3 3 3 3 2 1 1 1 2 2 3 3 4 4 5 4 5 4 4 4 3 4 5 5 4 3 3 0 2 4 5 4 8 2 4 5 6 6 7 6 6 5 4 4 5 2
8 7 6 4 4 3 3 4 4 4 4 4 4 4 4 2 2 2 3 4 3 2 2 3 2 2 4 5 5 5 5 5 4 4 4 4 4 5 4 5 5 1 1 0 1 4 5 5 5 3 3 4 4 5 7 6 6 6 6 5 5 6
6 6 5 5 5 4 4 3 3 2 2 2 2 2 2 3 4 3 1 3 3 3 3 3 4 4 5 6 6 6 5 5 4 4 5 4 5 4 4 4 6 1 3 2 5 3 8 9 2 4 3 4 6 3 5 6 4 6 7 7 6 8
6 5 4 5 4 3 1 0 0 1 1 3 3 4 2 2 3 2 2 2 2 4 5 5 6 6 6 5 4 4 3 3 3 4 4 4 5 5 4 3 4 2 0 3 2 6 7 4 3 2 2 1 4 5 4 5 5 6 7 8 7 7
5 6 4 4 3 2 1 1 1 1 3 4 4 3 3 3 1 2 2 2 3 5 6 7 6 4 3 3 3 3 3 3 3 4 4 5 5 4 5 4 4 3 3 2 3 4 6 4 2 1 2 1 1 1 1 1 5 6 6 8 7 6
5 5 4 5 4 4 2 0 1 1 4 3 2 1 3 2 1 1 1 1 1 5 5 6 5 3 3 4 4 3 3 4 4 5 5 7 6 6 5 5 4 4 5 6 6 6 5 4 3 2 2 2 1 1 2 1 1 4 5 6 5 6
3 3 4 5 5 4 2 4 3 4 3 3 2 2 3 2 3 2 3 3 4 5 4 6 4 4 4 4 5 5 5 5 5 5 6 6 6 6 6 5 4 4 4 6 4 5 5 5 1 3 5 2 0 0 1 2 2 3 4 5 5 6
4 5 4 3 3 3 1 2 2 2 2 1 2 2 2 2 2 2 1 2 3 2 4 6 5 4 5 6 6 6 7 6 5 5 5 6 6 7 6 6 6 6 4 4 5 4 6 7 5 3 2 1 3 2 2 1 1 3 4 5 6 7
3 3 4 3 3 2 2 1 1 1 0 1 1 2 2 2 2 3 1 2 2 2 3 5 6 5 4 6 7 8 7 7 7 5 6 7 7 8 7 6 6 6 5 6 5 5 6 7 5 7 3 6 3 2 4 6 6 3 3 4 6 6
4 4 3 3 3 3 2 2 3 2 3 4 3 5 5 5 3 3 1 0 4 3 4 5 5 5 5 7 7 7 8 8 7 6 5 6 7 8 8 7 7 7 7 7 7 4 4 6 7 8 6 3 2 1 5 2 4 2 4 4 5 6
4 3 4 3 4 3 2 1 0 1 3 2 4 4 4 3 5 4 1 3 4 5 5 5 6 6 6 5 7 7 8 8 7 6 6 7 7 7 7 8 8 7 8 8 7 4 5 5 8 8 8 6 4 3 3 2 5 4 3 4 4 6
3 2 2 2 2 2 2 3 2 2 1 1 1 3 2 2 3 4 1 5 5 6 6 6 6 5 4 5 6 7 8 8 8 7 6 6 8 8 8 7 6 7 8 6 7 9 9 6 5 6 7 6 4 3 4 4 4 3 3 3 5 6
4 4 4 3 3 2 1 0 1 2 2 3 3 3 3 3 2 2 3 3 4 5 6 5 6 5 5 6 7 8 8 8 7 8 7 7 8 7 5 7 8 9 8 8 9 9 9 7 8 6 8 7 6 5 5 3 4 9 4 6 6 6
5 6 6 4 3 2 1 2 2 2 1 2 1 2 2 3 4 3 4 1 3 5 4 4 4 5 6 8 8 8 9 9 8 8 6 7 9 9 8 10 10 9 10 9 9 10 9 9 9 10 7 7 7 7 5 2 3 4 3 6 5 9
8 6 6 7 7 8 7 6 6 5 6 5 4 5 4 5 5 4 4 5 4 2 4 4 5 6 7 7 8 8 8 9 10 8 6 8 10 7 7 8 10 10 10 10 8 9 10 9 8 7 7 7 8 5 4 4 4 5 5 5 6 10
7 7 8 8 8 8 6 6 6 6 5 5 5 4 5 6 6 5 4 4 4 4 5 4 5 6 5 6 7 7 7 8 8 7 8 8 9 9 9 9 9 9 11 11 8 7 9 11 10 8 8 8 9 10 9 9 10 8 8 5 4 7
9 8 7 7 8 7 6 5 5 5 4 4 3 4 4 4 4 3 3 4 5 5 5 5 5 6 6 6 6 6 7 8 7 8 9 9 9 8 8 7 7 7 6 6 8 8 9 10 11 9 10 9 9 8 9 9 9 9 10 8 9 8
8 6 7 7 7 6 6 5 4 4 3 3 3 4 3 4 4 3 4 4 5 6 6 6 6 7 7 7 6 7 7 7 7 7 8 8 8 9 8 8 8 9 8 9 10 9 9 11 12 10 10 10 10 10 10 8 6 8 8 5 5 5
7 5 5 6 5 5 4 3 3 3 3 3 4 3 3 3 5 4 3 3 4 5 6 6 7 8 8 8 7 7 8 8 8 8 8 9 9 9 8 8 8 8 9 9 9 11 12 13 12 12 10 10 10 9 9 8 8 7 8 7 5 6
6 5 5 4 4 5 4 4 4 3 4 3 4 4 4 4 4 4 3 4 4 5 5 6 7 8 8 8 8 8 8 8 8 8 7 7 8 8 7 7 7 8 8 7 9 10 10 11 10 8 11 10 9 9 9 8 8 9 8 9 8 8
6 5 6 5 5 5 5 4 4 5 4 4 3 3 4 4 4 3 3 4 5 5 5 6 6 7 7 7 8 9 8 8 7 7 7 7 8 7 7 8 8 8 10 7 8 10 10 10 11 11 9 9 7 9 9 8 8 9 8 8 7 6
6 6 7 6 5 4 4 4 4 4 4 4 5 4 5 5 5 4 4 4 5 5 6 5 6 6 7 7 7 8 8 8 7 7 7 7 7 7 6 5 6 7 8 7 8 10 10 10 11 11 9 10 10 9 8 7 7 7 7 6 8 9
Wind_Direction
126 123 123 126 134 139 150 147 150 149 151 149 145 148 153 156 155 158 154 149 137 117 131 153 150 157 164 154 149 156 146 139 137 125 126 144 155 153 153 162 196 244 273 293 312 312 314 314 312 305 58 69 80 104 122 124 130 133 130 132 127 138
136 136 136 133 133 137 145 144 154 154 145 150 151 156 157 148 152 131 157 147 146 156 151 155 166 181 178 181 176 176 164 154 152 151 142 148 165 185 179 175 215 236 250 277 295 322 322 317 310 303 56 85 85 128 133 141 140 140 142 139 144 146
147 145 137 134 138 142 147 158 153 140 142 153 165 151 135 135 112 150 157 162 159 126 146 182 190 205 197 196 191 185 176 171 169 164 166 170 184 202 202 196 220 233 247 257 304 323 313 308 314 328 64 78 112 130 137 143 144 150 151 153 159 151
146 144 140 143 143 152 163 156 138 129 139 161 152 137 144 146 168 170 173 166 160 162 163 201 222 217 210 200 201 192 191 189 189 185 177 176 186 207 217 225 230 235 251 267 288 290 307 308 307 315 85 87 116 132 142 152 155 166 158 158 164 158
132 143 143 148 152 163 167 146 128 142 160 165 150 150 165 170 179 175 173 174 171 135 134 185 202 252 225 188 186 197 211 209 203 198 189 157 174 197 219 242 255 251 246 247 268 270 293 304 307 315 342 105 167 149 153 153 158 171 163 159 163 146
127 137 141 152 162 170 162 140 143 167 168 165 163 180 186 189 183 176 153 169 147 138 158 173 157 172 198 182 197 197 212 207 233 232 215 178 189 205 214 221 226 253 260 251 245 255 253 260 282 295 297 116 188 168 160 153 165 181 164 161 157 146
122 125 136 149 154 152 147 142 154 167 165 177 181 184 195 179 149 146 137 141 151 166 181 188 196 182 170 174 194 211 205 196 222 237 245 197 206 223 217 219 221 232 257 260 255 248 246 255 235 263 282 182 168 169 165 157 161 172 169 163 160 150
123 126 138 148 147 151 145 148 166 173 167 182 171 179 186 173 147 147 154 163 157 178 181 186 209 213 203 167 195 209 221 184 208 232 227 204 217 228 235 229 234 241 237 243 250 249 243 244 250 218 248 229 162 167 165 160 157 167 173 166 159 155
132 135 146 152 155 151 143 152 161 149 171 178 162 181 189 168 147 163 174 181 177 190 204 200 212 215 196 182 175 179 191 223 215 231 213 223 212 224 237 237 235 241 234 236 236 244 235 240 246 244 223 235 163 165 160 160 160 163 171 169 164 163
147 150 156 153 159 152 153 155 162 150 172 153 155 173 196 184 169 170 191 191 196 189 198 204 218 223 191 198 184 190 181 202 224 226 214 237 209 207 230 240 248 250 245 244 241 238 226 236 239 229 216 207 169 166 165 165 161 163 164 164 171 169
154 154 158 163 165 157 151 161 166 156 150 157 170 178 202 200 181 182 193 201 203 199 195 216 227 233 222 213 192 201 223 213 218 223 225 242 209 200 209 232 235 239 246 241 241 239 224 230 236 203 209 178 172 158 164 159 154 154 158 169 177 170
160 159 166 171 169 162 166 169 158 162 182 184 180 193 216 225 215 186 180 203 213 212 200 216 227 241 234 215 214 212 226 220 234 224 210 227 242 219 210 230 234 233 238 237 242 241 233 230 241 208 182 127 135 155 154 157 158 158 157 168 169 175
160 166 168 173 182 184 173 167 165 183 190 189 190 190 218 229 231 217 206 211 221 220 197 202 225 242 247 217 222 236 240 233 234 230 220 215 222 226 225 251 265 256 247 240 240 245 235 222 234 203 145 84 103 100 80 86 71 75 168 171 170 172
167 170 180 179 178 187 181 172 180 187 187 177 189 201 222 232 235 232 228 227 224 224 204 187 202 239 251 257 260 256 259 257 246 234 231 221 218 213 223 228 247 267 259 233 228 231 218 218 238 129 88 90 115 122 123 120 124 127 113 340 301 182
171 175 177 179 182 183 177 181 184 182 180 176 188 206 229 238 241 241 235 238 223 228 230 221 215 222 247 243 255 265 265 265 265 251 242 236 221 218 215 226 221 240 278 331 17 1 337 311 264 155 102 97 113 131 128 138 144 152 151 145 134 288
165 171 177 176 179 182 182 183 186 187 174 181 187 208 218 226 240 256 257 265 262 244 237 228 201 201 231 231 230 239 244 255 255 255 253 256 237 226 223 232 225 203 249 209 101 199 193 238 281 311 77 97 139 150 143 147 155 154 149 152 151 204
167 173 169 170 172 176 169 183 191 194 184 188 198 212 226 232 230 227 238 260 266 251 240 238 217 191 205 218 219 223 226 231 239 236 245 248 247 239 231 241 244 196 75 326 338 296 265 208 208 161 140 148 136 145 148 151 154 158 160 173 165 178
173 171 166 168 172 180 189 186 203 210 219 241 253 230 225 204 223 222 230 259 279 271 253 240 242 227 217 219 213 217 221 213 220 227 227 232 236 246 246 237 255 184 190 182 142 223 296 303 245 144 139 140 132 159 147 143 151 150 166 168 173 201
170 176 168 164 174 173 152 69 27 346 330 315 294 277 243 217 206 188 213 236 256 262 259 243 223 217 223 234 244 243 236 224 223 236 237 234 236 236 237 240 243 276 220 214 175 168 203 251 357 47 76 97 131 168 170 144 157 147 166 179 185 191
172 176 170 154 136 123 115 169 242 338 305 271 268 275 287 263 235 208 209 192 219 234 242 247 244 229 224 242 256 264 263 243 224 223 242 249 244 234 233 230 230 192 222 248 191 205 194 143 126 122 86 48 6 111 137 190 143 147 167 176 183 182
183 166 160 148 147 158 148 71 2 259 259 266 249 232 243 256 257 213 154 162 263 264 254 261 265 282 287 269 251 254 260 254 224 218 226 236 234 234 227 222 215 196 206 211 209 190 211 164 159 321 333 83 73 353 130 110 139 141 162 171 175 186
140 144 158 172 176 164 185 177 171 201 215 256 260 281 288 246 208 188 148 129 217 248 292 293 316 351 304 272 266 252 241 240 228 230 234 241 239 233 229 222 207 228 197 207 229 187 182 131 196 181 203 267 35 332 167 145 143 177 161 167 170 182
137 145 164 169 147 159 173 171 136 199 176 240 234 234 227 283 338 346 45 138 235 293 296 293 302 308 308 306 288 272 260 250 234 226 238 247 248 251 241 232 215 223 226 214 223 197 184 183 196 149 81 40 261 205 274 228 213 204 178 164 161 177
116 122 132 139 122 132 120 133 104 141 359 84 276 336 2 3 29 15 32 173 221 222 242 271 280 278 272 274 278 275 271 259 250 223 223 236 240 247 246 244 232 227 214 239 217 221 190 195 172 134 187 203 198 182 236 228 201 213 169 155 154 165
139 135 132 127 115 102 57 23 2 355 22 4 8 9 5 347 357 332 46 43 260 238 233 237 246 247 240 253 265 274 273 264 257 247 231 238 239 237 237 238 236 233 220 231 243 226 211 196 200 193 166 137 73 236 223 225 161 241 166 156 187 164
136 133 153 152 144 121 132 134 36 35 334 350 323 333 329 316 320 300 228 192 241 245 237 242 241 240 244 255 265 269 278 285 275 257 240 243 250 249 243 238 230 230 233 224 237 238 233 205 209 208 208 187 149 176 186 203 146 223 193 197 178 178
87 85 51 82 91 67 63 39 10 340 343 292 305 310 263 268 264 276 224 173 220 241 235 231 243 243 242 241 253 267 270 271 274 279 275 257 249 245 248 245 240 231 234 229 220 238 233 218 209 229 226 220 181 184 172 144 207 101 191 193 186 189
81 89 96 73 64 69 92 181 240 215 215 244 212 232 261 274 259 247 280 198 222 235 246 238 245 251 238 232 228 245 252 251 252 254 261 265 258 253 255 255 239 231 231 223 222 227 236 219 215 221 197 217 224 200 204 231 179 185 163 177 184 194
62 62 57 58 70 90 141 173 163 160 172 250 274 254 287 298 296 315 329 297 210 250 262 262 254 245 237 239 238 241 248 255 253 251 239 256 260 252 238 243 240 229 223 225 215 220 227 229 220 224 187 209 203 201 188 178 341 323 178 179 200 181
59 58 62 60 65 57 51 45 48 32 33 8 1 339 352 331 328 335 329 323 329 298 273 277 265 250 245 242 242 241 241 247 252 253 243 240 253 249 247 247 243 236 231 233 223 222 224 226 220 221 209 199 195 188 162 186 215 211 276 226 179 188
53 54 56 58 58 53 45 44 45 41 36 28 6 7 359 352 345 346 344 328 322 314 318 302 295 285 258 255 254 249 244 245 247 250 253 252 253 250 240 243 252 254 243 231 223 212 222 230 223 217 212 205 200 198 192 194 199 198 202 199 183 194
58 57 56 56 58 49 50 46 45 45 40 18 16 11 357 344 331 324 332 331 327 334 322 306 300 295 291 279 272 266 258 256 252 246 244 242 247 247 250 243 234 228 241 244 242 219 219 223 223 221 216 210 210 205 209 202 200 192 196 210 191 189
63 57 61 61 60 52 49 42 42 40 30 10 12 8 337 326 322 321 334 346 339 328 318 321 313 309 299 294 286 282 273 262 257 248 247 246 244 250 248 244 245 242 231 223 225 224 225 222 220 214 211 203 205 202 210 206 190 194 202 189 181 173
66 62 63 60 58 57 45 41 34 31 16 10 1 353 333 326 323 318 321 324 313 307 309 299 301 301 297 301 296 284 281 274 265 260 257 252 251 252 248 242 245 254 247 238 231 228 232 232 227 218 208 202 203 209 214 203 197 190 191 191 183 180
67 56 63 59 54 48 35 22 17 8 12 5 352 340 325 322 326 327 318 328 317 310 300 296 294 294 298 294 292 291 284 277 273 265 260 261 259 257 249 252 238 239 244 237 235 231 232 233 231 214 215 210 199 199 208 205 196 198 190 197 190 182
70 62 56 46 34 34 24 23 14 13 360 356 344 331 333 339 336 341 335 342 321 307 298 295 293 295 297 296 297 297 291 285 280 272 268 264 260 252 245 244 245 242 246 239 234 227 231 230 231 219 208 215 204 210 205 201 198 198 198 197 200 175
50 43 41 42 42 32 36 32 8 1 357 359 357 350 339 332 334 342 348 333 319 307 301 301 304 308 309 308 303 298 298 293 285 273 272 270 262 254 250 248 254 255 253 246 237 228 224 227 229 223 211 203 199 203 205 200 204 204 202 204 202 191